Wind_Speed
2 3 4 4 4 4 5 6 7 7 7 8 8 9 9 9 9 9 9 9 9 10 10 9 10 9 9 9 9 9 9 9 8 8 7 7 7 7 7 6 5 5 5
3 4 4 5 5 5 5 6 7 7 8 8 9 9 9 9 9 9 9 10 10 10 10 10 10 9 9 9 9 9 9 9 9 8 8 7 7 7 7 7 7 6 5
4 5 5 5 5 6 6 6 7 7 8 8 9 9 9 9 9 9 10 10 10 11 11 10 10 10 9 9 8 9 9 8 9 9 9 8 8 8 8 7 7 6 6
4 5 5 5 5 5 6 6 7 8 8 9 9 9 9 9 9 10 10 10 11 11 11 10 10 10 10 9 9 9 9 9 9 9 9 9 8 8 8 8 8 7 6
5 5 5 5 5 6 6 7 8 8 8 9 10 10 9 9 10 10 11 11 11 11 11 11 11 10 10 10 10 9 9 9 9 9 9 9 9 9 9 9 8 7 7
5 5 5 5 5 6 6 7 8 8 9 9 10 10 10 10 10 11 11 11 11 11 12 12 11 11 11 10 10 10 9 9 9 9 9 9 10 10 10 9 9 8 8
4 4 5 5 5 6 6 8 9 9 10 10 10 10 10 10 10 11 11 11 12 12 12 12 12 12 11 11 10 10 9 9 9 9 10 10 9 11 11 10 9 9 9
4 5 5 5 6 6 7 8 9 10 10 10 10 10 10 10 10 11 11 12 12 12 13 13 12 12 12 11 10 10 9 8 9 9 10 10 10 11 12 11 10 10 10
5 5 5 6 6 7 7 8 9 10 10 10 9 9 10 10 11 12 12 13 13 13 13 13 12 12 12 11 10 10 10 9 9 9 9 10 10 10 12 12 12 11 10
5 6 7 7 7 7 8 9 10 10 10 10 9 10 10 11 12 13 13 13 13 13 13 13 12 12 12 11 11 11 11 10 10 10 9 9 10 11 12 12 12 12 12
5 6 6 7 7 8 9 10 10 10 10 10 10 10 11 12 13 13 13 14 14 13 13 12 12 12 12 12 11 11 12 12 11 11 11 10 10 11 12 13 13 13 13
4 5 6 6 7 8 9 10 10 10 11 10 11 11 12 13 13 13 13 13 13 12 12 12 12 12 12 12 12 12 12 12 12 12 12 12 11 12 13 14 14 14 14
5 5 6 6 7 8 9 9 10 10 10 10 11 12 13 13 13 13 13 13 12 12 12 12 12 12 12 12 12 12 12 13 13 13 13 13 12 13 14 14 15 16 16
5 6 6 7 8 8 9 9 9 10 10 11 11 12 13 13 13 13 13 13 13 13 12 12 12 11 11 12 12 12 12 13 12 13 13 14 14 14 15 15 16 17 17
5 5 6 7 7 8 8 9 10 10 10 11 11 12 13 13 13 12 13 13 13 12 12 12 11 11 11 11 11 11 11 12 12 12 13 14 14 15 16 16 17 17 17
5 5 6 6 6 7 7 8 9 10 10 11 11 12 12 12 12 12 13 13 12 12 12 12 11 11 11 11 11 10 10 10 11 12 13 14 15 15 17 17 18 18 18
5 5 5 5 5 6 7 7 9 9 10 11 11 12 12 13 13 13 13 13 13 13 12 12 11 11 11 10 10 9 9 10 10 11 13 14 15 16 18 18 18 18 19
4 4 4 4 4 5 6 7 9 10 11 11 11 12 12 13 13 13 13 13 13 13 13 12 11 11 11 10 9 9 9 9 10 11 12 14 15 17 18 19 19 19 19
4 3 3 4 4 5 6 7 9 10 11 11 12 12 12 13 13 13 13 13 13 14 13 12 11 11 10 9 8 8 7 7 8 9 11 13 14 16 18 19 19 20 20
3 2 3 3 4 5 6 7 8 9 10 11 12 12 13 13 13 13 13 13 14 14 13 12 12 11 10 9 7 6 5 5 6 8 9 12 13 15 17 18 19 20 21
2 2 2 3 4 5 6 7 8 9 11 12 12 13 13 13 13 13 13 14 14 14 13 13 12 12 11 9 7 5 4 3 4 6 8 10 13 14 16 17 19 19 21
1 1 2 3 4 5 6 7 8 9 11 12 12 13 13 14 14 14 14 14 15 15 14 13 13 12 12 10 8 5 3 2 2 4 6 9 11 13 15 17 19 19 21
1 0 2 3 4 6 6 7 8 10 11 11 12 13 14 14 14 14 15 15 16 16 15 14 13 13 12 11 9 7 4 3 1 2 4 7 10 12 14 17 18 19 20
2 1 2 3 5 6 7 8 9 10 11 11 12 13 14 14 15 15 15 16 16 16 16 15 14 13 12 12 10 8 6 4 2 1 2 5 8 10 13 16 16 17 19
3 2 2 3 4 6 7 8 9 10 11 12 13 13 14 14 15 16 16 16 16 17 17 16 15 15 14 13 11 9 8 6 4 3 1 3 6 8 10 14 15 17 19
4 3 3 3 4 5 6 7 8 10 11 12 13 14 14 15 16 16 17 17 17 17 17 17 16 15 15 14 12 11 9 7 6 4 2 1 4 6 9 12 14 16 18
Wind_Direction
306 312 310 312 318 326 329 328 329 331 333 330 329 329 329 329 328 328 327 326 324 324 321 315 311 308 301 291 288 284 278 272 272 272 270 265 256 248 244 242 237 232 233
299 307 304 306 312 318 318 320 323 323 324 325 326 325 324 323 323 323 323 323 324 323 321 317 313 310 305 301 295 287 278 272 268 268 267 265 257 246 241 240 238 233 234
295 307 303 304 305 312 315 317 318 320 321 323 323 322 320 318 318 318 318 319 321 319 317 315 312 310 305 300 297 292 281 273 268 266 264 260 256 244 238 236 234 232 229
290 302 302 300 302 310 316 317 318 317 319 319 318 318 314 312 313 314 315 316 317 317 315 313 312 309 305 302 297 293 282 274 269 268 263 256 251 243 236 233 232 230 224
289 300 303 301 299 302 309 315 316 313 314 314 314 313 311 310 311 311 312 313 313 313 312 311 308 307 304 304 300 294 286 278 271 266 262 254 245 240 234 229 228 227 223
294 298 300 299 299 301 307 313 314 313 314 314 312 309 307 307 308 309 310 310 310 309 307 307 306 305 303 300 298 294 288 282 275 267 260 253 241 235 231 226 223 221 219
291 291 295 301 304 308 310 315 317 316 316 312 310 305 306 306 307 307 307 307 306 305 303 303 302 300 299 297 295 293 286 279 275 269 262 253 240 231 227 223 221 218 216
290 291 298 301 306 310 313 317 318 317 315 314 311 307 307 307 308 308 307 306 305 304 302 301 299 297 294 293 292 290 285 276 271 265 260 248 238 231 223 219 218 215 210
293 294 298 300 306 311 314 320 321 319 317 315 313 310 309 309 310 309 307 306 305 303 301 298 297 294 291 289 287 285 280 275 268 263 259 247 234 229 221 216 214 211 207
289 293 295 296 303 310 315 318 317 315 314 313 311 312 311 310 310 310 308 307 306 304 301 297 293 290 289 287 285 281 276 273 267 260 254 242 232 225 219 214 213 209 206
292 298 299 296 306 314 318 317 315 316 315 314 313 313 312 311 311 310 308 307 307 305 301 297 294 290 287 285 283 279 274 269 266 257 248 239 231 223 218 213 212 208 203
302 307 309 306 313 316 318 320 320 319 319 318 317 317 315 315 313 312 311 310 309 308 304 300 296 292 288 286 282 277 273 267 262 255 246 238 230 223 216 212 209 206 203
308 311 313 311 314 318 322 322 320 319 320 321 320 319 317 316 315 317 316 314 313 312 309 304 299 294 291 288 282 276 272 266 258 251 243 236 228 222 217 212 208 205 204
308 311 310 309 313 317 321 323 322 322 322 322 322 321 320 320 319 320 321 318 315 314 312 309 305 297 293 289 284 277 270 265 256 247 240 233 227 222 217 211 207 204 202
299 306 313 311 313 317 321 325 328 329 327 325 326 324 324 324 323 323 325 323 321 318 315 313 309 303 297 292 287 280 273 263 253 244 237 231 226 222 216 210 205 202 202
292 302 308 312 313 316 323 331 337 335 334 332 330 329 329 328 329 330 330 329 327 325 321 317 313 308 303 298 292 284 274 261 250 240 234 230 226 221 215 211 204 202 201
287 299 304 309 316 322 327 335 341 342 342 340 337 337 336 335 333 334 334 334 332 330 327 325 319 315 309 302 295 287 275 261 251 241 234 228 224 219 214 209 205 203 201
283 295 305 313 324 330 336 345 351 349 349 348 347 344 342 341 340 339 339 338 338 337 335 332 327 325 318 310 299 288 278 264 253 244 234 225 221 216 211 208 207 204 203
279 293 306 317 327 334 341 349 353 352 353 354 353 350 349 349 347 346 345 344 345 344 344 343 338 334 328 321 311 295 281 268 256 243 231 222 217 214 211 208 206 205 203
276 291 314 330 336 340 349 355 357 357 360 0 359 358 357 358 356 354 355 354 352 351 353 354 350 345 341 336 328 306 284 268 256 238 227 218 214 212 209 207 206 204 203
268 301 334 349 351 357 3 5 3 4 4 4 5 6 5 4 5 5 4 2 359 359 0 1 360 358 355 353 349 330 302 276 251 232 218 212 212 210 207 208 205 205 204
244 319 13 17 22 24 20 14 11 9 8 9 11 12 11 12 13 12 10 8 6 6 7 6 6 7 7 8 7 4 350 322 254 224 214 209 208 207 207 206 205 206 205
195 90 51 49 43 37 30 23 19 16 13 14 16 17 18 18 18 17 15 14 11 9 10 11 11 13 16 18 19 21 22 17 352 203 205 205 205 204 204 204 206 207 207
182 145 85 68 55 47 40 34 28 23 21 21 22 22 21 21 21 19 18 17 15 15 16 18 19 18 21 23 27 30 34 39 49 96 173 195 199 203 205 205 205 206 207
177 159 119 86 63 51 44 38 34 30 28 27 27 26 24 23 23 22 21 21 21 21 22 23 22 22 24 26 30 34 36 40 49 63 126 183 195 200 203 204 205 209 210
176 163 134 101 70 53 45 38 34 32 30 29 30 29 28 27 25 25 25 25 25 25 26 26 25 25 26 29 33 34 35 38 37 44 66 178 198 204 206 207 210 213 214
Height
5885 5885 5885 5884 5883 5883 5882 5882 5881 5880 5880 5879 5878 5878 5877 5876 5875 5875 5874 5873 5873 5872 5872 5871 5871 5871 5871 5871 5871 5871 5872 5873 5873 5874 5875 5876 5877 5877 5878 5879 5880 5881 5882
5885 5884 5884 5884 5883 5882 5882 5881 5880 5880 5879 5878 5878 5877 5876 5875 5875 5874 5873 5872 5872 5871 5871 5870 5870 5869 5869 5869 5870 5870 5870 5871 5872 5873 5873 5874 5875 5876 5877 5878 5879 5880 5881
5884 5884 5883 5883 5882 5882 5881 5881 5880 5879 5878 5877 5877 5876 5875 5874 5874 5873 5872 5871 5871 5870 5869 5869 5868 5868 5868 5868 5868 5868 5869 5869 5870 5871 5872 5873 5874 5875 5876 5877 5878 5879 5880
5884 5883 5883 5882 5882 5881 5881 5880 5879 5878 5877 5876 5876 5875 5874 5873 5872 5872 5871 5870 5869 5869 5868 5867 5867 5867 5866 5866 5866 5867 5867 5867 5868 5869 5870 5871 5872 5873 5874 5875 5877 5878 5879
5883 5883 5883 5882 5881 5880 5880 5879 5878 5877 5876 5875 5874 5874 5873 5872 5871 5870 5870 5869 5868 5867 5866 5866 5865 5865 5865 5865 5864 5865 5865 5865 5866 5867 5868 5869 5870 5871 5872 5874 5875 5877 5878
5883 5882 5882 5881 5880 5880 5879 5878 5877 5876 5875 5874 5873 5872 5872 5871 5870 5869 5868 5867 5867 5866 5865 5864 5864 5863 5863 5863 5863 5863 5863 5863 5864 5865 5865 5866 5868 5869 5871 5872 5874 5875 5877
5882 5882 5881 5880 5880 5879 5878 5877 5876 5875 5874 5873 5872 5871 5870 5869 5868 5868 5867 5866 5865 5864 5863 5862 5862 5861 5861 5861 5861 5861 5861 5861 5862 5862 5863 5864 5865 5867 5869 5871 5872 5874 5876
5882 5881 5880 5880 5879 5879 5878 5877 5876 5874 5873 5872 5871 5870 5869 5868 5867 5866 5865 5864 5863 5862 5861 5860 5860 5859 5859 5859 5859 5859 5859 5859 5859 5860 5861 5862 5863 5865 5867 5869 5871 5872 5874
5881 5880 5880 5879 5879 5878 5877 5876 5875 5874 5872 5871 5870 5869 5867 5867 5866 5864 5863 5862 5861 5860 5859 5858 5857 5857 5856 5856 5856 5856 5857 5857 5857 5858 5858 5860 5861 5863 5865 5867 5869 5871 5873
5880 5879 5879 5878 5878 5877 5876 5875 5874 5872 5871 5870 5869 5868 5866 5865 5864 5863 5862 5860 5859 5858 5857 5856 5855 5854 5854 5854 5854 5854 5854 5854 5855 5855 5856 5857 5859 5860 5862 5865 5867 5869 5872
5879 5879 5878 5877 5877 5876 5875 5874 5873 5871 5870 5869 5868 5866 5865 5864 5862 5861 5860 5858 5857 5855 5854 5853 5852 5851 5851 5851 5851 5851 5851 5851 5852 5853 5854 5855 5856 5858 5860 5863 5865 5868 5870
5878 5878 5877 5877 5876 5875 5874 5873 5872 5871 5869 5868 5867 5865 5864 5862 5861 5859 5857 5856 5854 5853 5851 5850 5849 5848 5848 5848 5847 5847 5848 5848 5849 5849 5851 5852 5854 5856 5858 5860 5863 5866 5869
5877 5877 5876 5876 5875 5874 5873 5872 5871 5870 5868 5867 5865 5864 5862 5861 5859 5857 5855 5854 5852 5850 5849 5847 5846 5845 5845 5844 5844 5844 5844 5844 5845 5846 5847 5849 5851 5853 5855 5858 5861 5864 5867
5877 5876 5875 5875 5874 5873 5872 5871 5870 5869 5867 5866 5864 5862 5861 5859 5857 5855 5853 5852 5850 5848 5846 5845 5843 5842 5842 5841 5841 5840 5840 5841 5841 5843 5844 5846 5848 5851 5853 5856 5859 5862 5865
5876 5876 5875 5874 5873 5873 5872 5871 5869 5868 5866 5864 5863 5861 5859 5857 5856 5854 5852 5850 5848 5846 5844 5842 5841 5840 5839 5838 5837 5837 5837 5837 5838 5839 5841 5843 5845 5848 5851 5853 5856 5860 5863
5876 5875 5874 5874 5873 5872 5871 5870 5869 5867 5865 5864 5862 5860 5858 5856 5854 5852 5850 5848 5846 5844 5842 5840 5838 5837 5836 5835 5834 5833 5833 5833 5834 5836 5837 5840 5842 5845 5848 5851 5854 5858 5861
5875 5875 5874 5873 5873 5872 5871 5870 5868 5866 5864 5863 5861 5859 5857 5855 5853 5851 5848 5846 5844 5842 5840 5837 5836 5834 5833 5831 5831 5830 5830 5830 5831 5832 5834 5837 5839 5842 5845 5848 5852 5855 5859
5874 5874 5874 5873 5872 5871 5870 5869 5867 5866 5864 5862 5860 5858 5856 5854 5852 5849 5847 5845 5843 5840 5838 5835 5833 5832 5830 5829 5828 5827 5827 5827 5828 5829 5831 5833 5836 5839 5843 5846 5849 5853 5857
5874 5873 5873 5872 5871 5871 5870 5868 5867 5865 5863 5861 5859 5857 5855 5853 5851 5849 5846 5844 5841 5839 5836 5834 5831 5829 5828 5826 5825 5825 5825 5825 5826 5827 5828 5831 5833 5836 5840 5843 5847 5851 5854
5873 5872 5872 5872 5871 5870 5869 5868 5866 5865 5863 5861 5859 5857 5855 5853 5850 5848 5846 5843 5841 5838 5835 5833 5830 5828 5826 5824 5823 5822 5822 5823 5823 5825 5826 5828 5831 5834 5837 5841 5844 5848 5852
5872 5872 5871 5871 5870 5869 5869 5867 5866 5865 5863 5861 5859 5857 5855 5853 5850 5848 5846 5843 5841 5838 5835 5832 5830 5828 5825 5823 5822 5821 5821 5821 5822 5823 5824 5826 5829 5832 5835 5838 5842 5846 5850
5871 5871 5871 5871 5870 5869 5868 5867 5866 5865 5864 5862 5859 5857 5855 5853 5851 5848 5846 5843 5841 5838 5835 5832 5830 5828 5825 5823 5822 5821 5821 5821 5821 5822 5823 5825 5827 5830 5833 5836 5840 5844 5847
5871 5871 5871 5870 5870 5869 5868 5868 5867 5865 5864 5862 5860 5858 5856 5854 5851 5849 5846 5844 5841 5838 5835 5833 5831 5828 5826 5824 5822 5821 5821 5821 5821 5821 5822 5824 5826 5828 5831 5835 5838 5842 5846
5871 5871 5871 5870 5870 5870 5869 5868 5867 5866 5865 5863 5861 5859 5857 5854 5852 5850 5847 5845 5842 5839 5836 5834 5832 5829 5827 5825 5823 5822 5821 5821 5821 5821 5822 5824 5825 5828 5830 5833 5837 5840 5843
5870 5871 5871 5870 5870 5870 5869 5869 5868 5867 5865 5863 5861 5860 5858 5856 5853 5851 5848 5846 5843 5840 5838 5835 5833 5831 5828 5826 5825 5824 5823 5822 5822 5822 5823 5824 5825 5827 5829 5832 5835 5838 5841
5870 5870 5870 5870 5870 5870 5870 5869 5869 5867 5866 5864 5862 5861 5859 5857 5855 5852 5850 5847 5845 5842 5839 5837 5835 5832 5830 5828 5827 5825 5824 5824 5823 5823 5823 5824 5825 5827 5829 5831 5833 5836 5839